Regional Weather Roundup
Issued by NWS Cleveland, OH

Home | Current Version | Previous Version | Graphics & Text | Print | Product List | Glossary On
Versions: 1 2 3 4 5 6 7 8 9 10 11 12 13 14 15 16 17 18 19 20 21 22 23 24 25 26 27 28 29 30 31 32 33 34 35 36 37 38 39 40 41 42 43 44 45 46 47 48 49 50
000
ASUS41 KCLE 292010
RWRCLE
OHIO REGIONAL WEATHER ROUNDUP
NATIONAL WEATHER SERVICE CLEVELAND, OH
400 PM EDT FRI MAY 29 2015

NOTE: "FAIR" INDICATES FEW OR NO CLOUDS BELOW 12,000 FEET WITH NO
SIGNIFICANT WEATHER AND/OR OBSTRUCTIONS TO VISIBILITY.

OHZ001>008-015>018-024>027-034-035-043-044-292100-
   NORTHWEST OHIO

CITY           SKY/WX    TMP DP  RH WIND       PRES   REMARKS
DEFIANCE       MOSUNNY   84  65  52 S9        30.04F
FINDLAY        MOSUNNY   83  67  58 S15G22    30.06F
TOLEDO EXPRESS PTSUNNY   82  65  56 SW12      30.05F
TOLEDO EXEC    MOSUNNY   83  66  56 S15G21    30.06F
LIMA           MOSUNNY   82  66  58 S10G22    30.07F
$$

OHZ009>014-019>023-028>033-038-089-292100-
   NORTHEAST OHIO

CITY           SKY/WX    TMP DP  RH WIND       PRES   REMARKS
CLE-HOPKINS    CLOUDY    84  64  50 S18G25    30.10F
CLE-LAKEFRONT  CLOUDY    84  62  47 S17G26    30.07F
CUY CO. ARPT   PTSUNNY   86  66  51 SW10G21   30.10F
LORAIN-ELYRIA  PTSUNNY   83  67  58 SW14G26   30.09F
ASHTABULA      PTSUNNY   84  64  50 S9        30.12F
AKRON-CANTON   PTSUNNY   83  65  54 SW14      30.13F
WOOSTER        PTSUNNY   81  67  62 S13       30.13F
MANSFIELD      PTSUNNY   79  69  71 S14       30.12F
YOUNGSTOWN     CLOUDY    84  64  50 S14G20    30.13F
$$

OHZ042-051>053-060>062-070>072-077>081-292100-
  SOUTHWEST OHIO

CITY           SKY/WX    TMP DP  RH WIND       PRES   REMARKS
CINC-COVINGTON NOT AVBL
CINC-LUNKEN    MOSUNNY   83  67  58 S7G20     30.10F
HAMILTON       MOSUNNY   85  66  53 SW8       30.10F
DAYTON         PTSUNNY   82  65  56 S12       30.11F
WRIGHT-PAT AFB MOSUNNY   84  66  55 SW14      30.09F
DAYTON GENERAL MOSUNNY   82  64  54 SW14      30.10F
WILMINGTON     SUNNY     83  62  49 S17G23    30.11F
$$

OHZ036-037-039>041-045>050-054>059-063>069-073>076-082>088-292100-
  CENTRAL AND SOUTHEAST OHIO

CITY           SKY/WX    TMP DP  RH WIND       PRES   REMARKS
COLUMBUS       PTSUNNY   83  64  52 SW8       30.11F
OSU AIRPORT    PTSUNNY   83  64  52 S13       30.10F
BOLTON FIELD   NOT AVBL
RICKENBACK AFB PTSUNNY   82  66  57 S8G18     30.11F
NEWARK         PTSUNNY   82  67  60 S8        30.11F
MARION         PTSUNNY   85  63  47 SW16G25   30.09F
LANCASTER      PTSUNNY   83  66  56 SW10      30.13F
ZANESVILLE     NOT AVBL
NEW PHILLY     PTSUNNY   86  65  49 S6        30.14F
$$


USA.gov is the U.S. government's official web portal to all federal, state and local government web resources and services.